Flag for U.S.A. Weather past 2 weeks in Germantown, Maryland, U.S.A.

Now
84 °F

Partly sunny.


Feels Like: 86 °F
Forecast: 56 / 82 °F
Wind: 6 mph from Southwest

Location: Frederick Municipal Airport

Current Time: Sep 21, 2014 at 6:31:34 PM

Latest Report: Sep 21, 2014 at 5:45 PM


Visibility: 10 mi

Pressure: 29.66 "Hg

Humidity: 51%

Dew point: 64 °F

Location of GermantownLocation

Historic Weather in Germantown — Graph

°F

Germantown temperature yesterday

Maximum temperature yesterday: 84 °F (at 1:50 PM)
Minimum temperature yesterday: 61 °F (at 5:00 AM)
Average temperature yesterday: 68 °F

Past Weeks' High & Low Weather Summary

 TemperatureHumidityPressure
High90 °F (Sep 11, 2:45 PM)100% (Sep 8, 12:05 AM)30.36 "Hg (Sep 8, 12:05 AM)
Low46 °F (Sep 14, 5:25 AM)34% (Sep 17, 3:45 PM)29.66 "Hg (Sep 21, 4:50 PM)
Average65 °F83%30.13 "Hg
* Reported Sep 6 4:50 PM — Sep 21 4:50 PM, Germantown, Weather by CustomWeather, © 2014

Note: Actual official high and low records may vary slightly from our data, if they occured in-between our weather recording intervals... More about our weather records

Advertising

Germantown weather history for previous 24 hours

 ConditionsComfort  
Time TempWeatherWind HumidityBarometerVisibility
4:50 PM
Sep 21
88 °FPartly sunny.9 mph40%29.66 "Hg10 mi
3:45 PM90 °FSunny.8 mph41%29.68 "Hg10 mi
2:55 PM90 °FScattered clouds.5 mph41%29.72 "Hg10 mi
1:50 PM88 °FSunny.7 mph46%29.76 "Hg10 mi
12:50 PM84 °FSunny.5 mph51%29.81 "Hg10 mi
11:50 AM81 °FSunny.3 mph58%29.84 "Hg10 mi
10:45 AM75 °FSunny.No wind69%29.87 "Hg10 mi
9:45 AM66 °FSunny.No wind88%29.91 "Hg10 mi
8:45 AM63 °FSunny.No wind94%29.92 "Hg7 mi
7:55 AM61 °FSunny.No wind100%29.92 "Hg10 mi
6:45 AM57 °FFog.3 mph100%29.92 "Hg7 mi
6:20 AM55 °FFog.No wind100%29.93 "Hg1 mi
6:00 AM55 °FFog.No wind100%29.94 "Hg4 mi
5:20 AM55 °FFog.No wind100%29.96 "Hg4 mi
5:00 AM57 °FFog.No wind94%29.95 "Hg3 mi
4:40 AM59 °FFog.No wind100%29.95 "Hg4 mi
4:20 AM59 °FFog.3 mph94%29.95 "Hg1 mi
4:00 AM57 °FClear.3 mph94%29.96 "Hg7 mi
3:40 AM59 °FFog.No wind94%29.96 "Hg2 mi
3:20 AM59 °FFog.No wind100%29.97 "Hg5 mi
3:00 AM59 °FClear.No wind100%29.97 "Hg10 mi
2:40 AM59 °FClear.No wind94%29.99 "Hg7 mi
2:20 AM61 °FClear.No wind94%30.01 "Hg10 mi
2:00 AM61 °FClear.6 mph94%30.02 "Hg7 mi
1:40 AM61 °FClear.No wind94%30.04 "Hg7 mi
1:20 AM59 °FFog.No wind100%30.05 "Hg3 mi
1:00 AM61 °FClear.No wind94%30.06 "Hg7 mi
12:40 AM61 °FClear.No wind94%30.07 "Hg7 mi
12:20 AM63 °FClear.3 mph88%30.08 "Hg10 mi
12:00 AM63 °FClear.3 mph88%30.10 "Hg10 mi
11:40 PM
Sep 20
63 °FClear.No wind94%30.10 "Hg10 mi
11:20 PM63 °FClear.No wind88%30.10 "Hg10 mi
11:00 PM63 °FClear.No wind94%30.10 "Hg10 mi
10:40 PM64 °FClear.No wind83%30.09 "Hg10 mi
10:20 PM64 °FClear.No wind83%30.09 "Hg10 mi
10:00 PM66 °FClear.No wind78%30.08 "Hg10 mi
9:40 PM68 °FClear.No wind73%30.08 "Hg10 mi
9:00 PM70 °FClear.5 mph69%30.08 "Hg10 mi
8:40 PM70 °FClear.5 mph69%30.07 "Hg10 mi
7:50 PM73 °FSunny.3 mph61%30.07 "Hg10 mi
6:50 PM79 °FSunny.5 mph58%30.08 "Hg10 mi
Weather by CustomWeather, © 2014

See weather overviewHow to use our weather pages